Weather History for KAUW - August, 2013

Change the Weather History Date:

Saturday, August 24, 2013

  Actual Average Record
Temperature  
Mean Temperature 71 °F 66 °F  
Max Temperature 84 °F 77 °F 99 °F (1948)
Min Temperature 57 °F 56 °F 35 °F (1942)
Degree Days  
Heating Degree Days 0 2  
Month to date heating degree days 26 27  
Since 1 June heating degree days 142 139  
Since 1 July heating degree days 56 50  
Cooling Degree Days 6 3  
Month to date cooling degree days 62 97  
Year to date cooling degree days 368 357  
Since 1 June cooling degree days 331 338  
Growing Degree Days 20 (Base 50)    
Moisture  
Dew Point 59 °F    
Average Humidity 66    
Maximum Humidity 93    
Minimum Humidity 39    
Precipitation  
Precipitation 0.00 in 0.14 in 1.55 in (2006)
Month to date precipitation 1.59 3.27  
Year to date precipitation 25.69 21.32  
Snow  
Snow 0.00 in 0.00 in 0.00 in ()
Month to date snowfall 0.0 0.0  
Since 1 June snowfall 0.0 0.0  
Since 1 July snowfall 0.0 0.0  
Snow Depth 0.00 in    
Sea Level Pressure  
Sea Level Pressure 30.17 in    
Wind  
Wind Speed 10 mph (SSE)    
Max Wind Speed 18 mph    
Max Gust Speed 23 mph    
Visibility 10 miles    
Events      
T = Trace of Precipitation, MM = Missing Value Source: NWS Daily Summary

Daily Weather History Graph

Daily Weather History Graph

Search for Another Location

Airport or City:

Trip Planner

Search our weather history database for the weather conditions in past years. The results will help you decide how hot, cold, wet, or windy it might be!

Date:

Astronomy

Aug. 24, 2013 Rise Set
Actual Time 6:11 AM CDT 7:49 PM CDT
Civil Twilight 5:40 AM CDT 8:20 PM CDT
Nautical Twilight 5:02 AM CDT 8:57 PM CDT
Astronomical Twilight 4:22 AM CDT 9:37 PM CDT
Moon 9:29 PM CDT (8/24) 10:24 AM CDT (8/24)
Length of Visible Light 14h 39m
Length of Day
13h 37m
Waning Gibbous, 84% of the Moon is Illuminated
Aug 24
Waning Gibbous
Aug 28
Last Quarter
Sep 5
New
Sep 12
First Quarter
Sep 19
Full

Hourly Weather History & Observations

Time (CDT) Temp. Heat Index Dew Point Humidity Pressure Visibility Wind Dir Wind Speed Gust Speed Precip Events Conditions
12:54 AM 63.0 °F - 59.0 °F 87% 30.17 in 10.0 mi SE 3.5 mph - N/A   Clear
1:54 AM 63.0 °F - 57.9 °F 84% 30.17 in 10.0 mi SE 3.5 mph - N/A   Clear
2:54 AM 62.1 °F - 57.0 °F 84% 30.19 in 10.0 mi SE 3.5 mph - N/A   Clear
3:54 AM 60.1 °F - 55.9 °F 86% 30.20 in 10.0 mi East 5.8 mph - N/A   Clear
4:54 AM 59.0 °F - 55.0 °F 87% 30.21 in 10.0 mi ESE 5.8 mph - N/A   Clear
5:54 AM 57.9 °F - 54.0 °F 87% 30.22 in 10.0 mi East 3.5 mph - N/A   Clear
6:54 AM 57.9 °F - 55.0 °F 90% 30.23 in 10.0 mi East 4.6 mph - N/A   Clear
7:54 AM 62.1 °F - 55.0 °F 78% 30.24 in 10.0 mi East 3.5 mph - N/A   Clear
8:54 AM 69.1 °F - 51.1 °F 53% 30.23 in 10.0 mi South 9.2 mph - N/A   Clear
9:54 AM 73.0 °F - 52.0 °F 48% 30.22 in 10.0 mi South 10.4 mph - N/A   Clear
10:54 AM 77.0 °F - 53.1 °F 43% 30.22 in 10.0 mi South 11.5 mph - N/A   Mostly Cloudy
11:54 AM 80.1 °F 79.9 °F 53.1 °F 39% 30.22 in 10.0 mi SSE 13.8 mph - N/A   Clear
12:54 PM 82.0 °F 81.4 °F 55.0 °F 39% 30.20 in 10.0 mi SSE 13.8 mph - N/A   Mostly Cloudy
1:54 PM 80.1 °F 80.2 °F 55.9 °F 43% 30.18 in 10.0 mi SSW 11.5 mph - N/A   Scattered Clouds
2:54 PM 82.9 °F 82.1 °F 55.9 °F 39% 30.15 in 10.0 mi SSE 12.7 mph - N/A   Mostly Cloudy
3:54 PM 82.9 °F 83.3 °F 61.0 °F 47% 30.14 in 10.0 mi South 12.7 mph - N/A   Scattered Clouds
4:54 PM 82.0 °F 83.1 °F 63.0 °F 52% 30.13 in 10.0 mi South 11.5 mph - N/A   Overcast
5:54 PM 82.0 °F 83.4 °F 64.0 °F 54% 30.12 in 10.0 mi South 11.5 mph - N/A   Mostly Cloudy
6:54 PM 80.1 °F 81.9 °F 64.9 °F 60% 30.11 in 10.0 mi South 10.4 mph - N/A   Clear
7:54 PM 78.1 °F - 66.0 °F 66% 30.10 in 10.0 mi South 9.2 mph - N/A   Clear
8:54 PM 75.9 °F - 66.0 °F 71% 30.12 in 10.0 mi South 10.4 mph - N/A   Clear
9:54 PM 75.9 °F - 66.0 °F 71% 30.11 in 10.0 mi South 11.5 mph - N/A   Partly Cloudy
10:54 PM 75.0 °F - 66.0 °F 73% 30.09 in 10.0 mi South 12.7 mph - N/A   Clear
11:54 PM 73.9 °F - 64.9 °F 73% 30.09 in 10.0 mi South 15.0 mph 20.7 mph N/A   Partly Cloudy